Date String (YYYY-MM-DD hh:mm:ss) UTC,Instrument flags,Ambient pressure (hPa),Sample flow (lpm),Bypass flow (lpm),Sample temperature (°C),Ambient temperature (°C),ASC tube jacket temperature (°C),LED temperature (°C),Box temperature (°C),Sample RH (%),Span deviation,Mass concentration (μg/m³),Mass concentration (μg/m³),Mass concentration (μg/m³)
DateTimeUTC,F1_M11,P_M11,Q1_M11,Q2_M11,T1_M11,T2_M11,T3_M11,T4_M11,T5_M11,U1_M11,ZSPAN_M11,X0_M11,X2_M11,X1_M11
2022-07-23 01:00:00,,0825.6,5.02,0.00,29.3,27.3,00.0,38.0,31.2,24.3,0000.0,0015.56,0006.17,0005.12
2022-07-23 01:01:00,,0825.6,5.00,0.00,29.3,27.6,00.0,38.0,31.2,24.0,0000.0,0015.84,0006.14,0005.11
2022-07-23 01:02:00,,0825.6,5.00,0.00,29.3,27.8,00.0,38.0,31.3,23.8,0000.0,0015.03,0006.10,0005.10
2022-07-23 01:03:00,,0825.6,5.00,0.00,29.4,28.0,00.0,38.0,31.4,24.1,0000.0,0014.20,0006.06,0005.08
2022-07-23 01:04:00,,0825.6,5.00,0.00,29.4,27.8,00.0,38.0,31.3,24.1,0000.0,0013.36,0006.02,0005.06
2022-07-23 01:05:00,,0825.5,4.99,0.00,29.4,27.2,00.0,37.9,31.2,24.0,0000.0,0012.38,0005.94,0005.05
2022-07-23 01:06:00,,0825.5,5.01,0.00,29.3,27.0,00.0,37.9,31.2,23.9,0000.0,0011.86,0005.84,0005.04
2022-07-23 01:07:00,,0825.5,4.99,0.00,29.3,27.1,00.0,37.9,31.1,23.7,0000.0,0011.55,0005.80,0005.04
2022-07-23 01:08:00,,0825.5,5.02,0.00,29.3,27.3,00.0,37.9,31.1,23.5,0000.0,0011.57,0005.81,0005.03
2022-07-23 01:09:00,,0825.5,5.00,0.00,29.3,27.5,00.0,38.0,31.2,23.4,0000.0,0011.86,0005.83,0005.03
2022-07-23 01:10:00,,0825.5,5.00,0.00,29.3,27.7,00.0,38.0,31.3,23.3,0000.0,0012.06,0005.90,0005.05
2022-07-23 01:11:00,,0825.5,5.00,0.00,29.3,28.0,00.0,38.0,31.3,22.9,0000.0,0012.00,0005.89,0005.05
2022-07-23 01:12:00,,0825.5,5.01,0.00,29.4,28.0,00.0,38.0,31.4,22.7,0000.0,0011.35,0005.88,0005.06
2022-07-23 01:13:00,,0825.5,5.00,0.00,29.4,27.5,00.0,37.9,31.3,22.5,0000.0,0011.28,0005.85,0005.05
2022-07-23 01:14:00,,0825.5,5.00,0.00,29.3,27.1,00.0,37.9,31.2,22.7,0000.0,0011.25,0005.90,0005.05
2022-07-23 01:15:00,,0825.5,4.99,0.00,29.3,27.1,00.0,37.9,31.1,22.9,0000.0,0010.72,0005.89,0005.05
2022-07-23 01:16:00,,0825.6,5.00,0.00,29.3,27.2,00.0,37.9,31.1,23.1,0000.0,0010.73,0005.90,0005.05
2022-07-23 01:17:00,,0825.6,5.00,0.00,29.3,27.4,00.0,37.9,31.1,23.4,0000.0,0011.17,0005.95,0005.05
2022-07-23 01:18:00,,0825.6,5.01,0.00,29.3,27.6,00.0,38.0,31.2,23.5,0000.0,0011.59,0005.97,0005.04
2022-07-23 01:19:00,,0825.6,5.00,0.00,29.3,27.8,00.0,38.0,31.3,23.4,0000.0,0011.48,0005.93,0005.02
2022-07-23 01:20:00,,0825.5,4.99,0.00,29.3,28.0,00.0,38.0,31.3,23.2,0000.0,0011.35,0005.90,0005.01
2022-07-23 01:21:00,,0825.6,5.00,0.00,29.4,28.1,00.0,38.0,31.4,23.2,0000.0,0011.87,0005.85,0005.00
2022-07-23 01:22:00,,0825.6,5.00,0.00,29.4,27.6,00.0,38.0,31.3,23.2,0000.0,0011.73,0005.82,0004.99
2022-07-23 01:23:00,,0825.6,4.99,0.00,29.3,27.0,00.0,37.9,31.2,23.1,0000.0,0011.77,0005.82,0004.97
2022-07-23 01:24:00,,0825.6,5.01,0.00,29.3,27.0,00.0,37.9,31.1,23.1,0000.0,0011.73,0005.82,0004.97
2022-07-23 01:25:00,,0825.6,4.99,0.00,29.3,27.1,00.0,37.9,31.1,23.2,0000.0,0012.13,0005.80,0004.96
2022-07-23 01:26:00,,0825.5,5.00,0.00,29.3,27.3,00.0,37.9,31.1,22.8,0000.0,0012.26,0005.80,0004.95
2022-07-23 01:27:00,,0825.5,5.00,0.00,29.3,27.5,00.0,38.0,31.2,22.7,0000.0,0012.21,0005.81,0004.95
2022-07-23 01:28:00,,0825.5,5.00,0.00,29.3,27.8,00.0,38.0,31.3,22.9,0000.0,0011.93,0005.82,0004.95
2022-07-23 01:29:00,,0825.5,5.01,0.00,29.3,28.0,00.0,38.0,31.3,23.0,0000.0,0011.48,0005.81,0004.93
2022-07-23 01:30:00,,0825.5,5.00,0.00,29.4,28.2,00.0,38.0,31.4,23.0,0000.0,0011.32,0005.78,0004.92
2022-07-23 01:31:00,,0825.5,5.00,0.00,29.4,28.0,00.0,38.0,31.4,23.0,0000.0,0011.15,0005.76,0004.89
2022-07-23 01:32:00,,0825.5,4.99,0.00,29.4,27.3,00.0,37.9,31.3,23.1,0000.0,0010.32,0005.72,0004.87
2022-07-23 01:33:00,,0825.5,5.00,0.00,29.3,27.0,00.0,37.9,31.2,22.9,0000.0,0010.35,0005.68,0004.85
2022-07-23 01:34:00,,0825.5,4.99,0.00,29.3,27.1,00.0,37.9,31.1,22.9,0000.0,0010.22,0005.65,0004.82
2022-07-23 01:35:00,,0825.5,5.00,0.00,29.3,27.2,00.0,37.9,31.1,22.8,0000.0,0010.17,0005.63,0004.79
2022-07-23 01:36:00,,0825.4,5.00,0.00,29.3,27.4,00.0,38.0,31.1,22.7,0000.0,0009.77,0005.61,0004.75
2022-07-23 01:37:00,,0825.5,4.99,0.00,29.3,27.6,00.0,38.0,31.2,22.7,0000.0,0009.76,0005.62,0004.73
2022-07-23 01:38:00,,0825.4,5.00,0.00,29.3,27.9,00.0,38.0,31.3,22.6,0000.0,0009.77,0005.60,0004.70
2022-07-23 01:39:00,,0825.4,5.00,0.00,29.4,28.1,00.0,38.0,31.4,22.4,0000.0,0009.72,0005.56,0004.67
2022-07-23 01:40:00,,0825.5,5.00,0.00,29.4,28.2,00.0,38.0,31.4,22.2,0000.0,0010.16,0005.54,0004.66
2022-07-23 01:41:00,,0825.5,5.00,0.00,29.4,27.7,00.0,38.0,31.4,22.3,0000.0,0012.25,0005.51,0004.65
2022-07-23 01:42:00,,0825.5,5.01,0.00,29.4,27.0,00.0,37.9,31.3,22.1,0000.0,0012.43,0005.48,0004.64
2022-07-23 01:43:00,,0825.5,5.00,0.00,29.3,26.9,00.0,37.9,31.2,22.3,0000.0,0012.37,0005.48,0004.64
2022-07-23 01:44:00,,0825.6,4.98,0.00,29.3,27.0,00.0,38.0,31.1,22.6,0000.0,0012.30,0005.49,0004.65
2022-07-23 01:45:00,,0825.5,5.00,0.00,29.3,27.2,00.0,38.0,31.1,22.8,0000.0,0012.28,0005.47,0004.64
2022-07-23 01:46:00,,0825.6,5.01,0.00,29.3,27.5,00.0,38.0,31.2,23.0,0000.0,0012.23,0005.46,0004.65
2022-07-23 01:47:00,,0825.6,4.98,0.00,29.3,27.7,00.0,38.0,31.2,23.0,0000.0,0012.39,0005.48,0004.65
2022-07-23 01:48:00,,0825.6,5.00,0.00,29.3,27.9,00.0,38.0,31.3,23.0,0000.0,0012.18,0005.41,0004.65
2022-07-23 01:49:00,,0825.5,4.99,0.00,29.4,28.1,00.0,38.0,31.4,22.8,0000.0,0012.14,0005.35,0004.62
2022-07-23 01:50:00,,0825.5,5.01,0.00,29.4,27.7,00.0,38.0,31.4,22.8,0000.0,0012.33,0005.30,0004.60
2022-07-23 01:51:00,,0825.5,5.00,0.00,29.3,27.1,00.0,37.9,31.2,22.7,0000.0,0011.65,0005.26,0004.58
2022-07-23 01:52:00,,0825.5,5.00,0.00,29.3,26.9,00.0,37.9,31.1,22.8,0000.0,0009.57,0005.24,0004.56
2022-07-23 01:53:00,,0825.5,5.00,0.00,29.3,27.0,00.0,37.9,31.1,22.8,0000.0,0009.48,0005.24,0004.53
2022-07-23 01:54:00,,0825.4,5.00,0.00,29.2,27.2,00.0,37.9,31.1,22.7,0000.0,0009.56,0005.20,0004.48
2022-07-23 01:55:00,,0825.5,5.00,0.00,29.2,27.4,00.0,37.9,31.1,22.6,0000.0,0009.75,0005.15,0004.44
2022-07-23 01:56:00,,0825.5,5.00,0.00,29.2,27.6,00.0,37.9,31.2,22.4,0000.0,0010.27,0005.11,0004.41
2022-07-23 01:57:00,,0825.4,5.00,0.00,29.3,27.8,00.0,38.0,31.2,22.4,0000.0,0010.31,0005.07,0004.38
2022-07-23 01:58:00,,0825.5,5.00,0.00,29.3,28.0,00.0,38.0,31.3,22.3,0000.0,0010.07,0005.03,0004.35
2022-07-23 01:59:00,,0825.5,5.00,0.00,29.4,28.2,00.0,38.0,31.4,22.2,0000.0,0010.39,0005.00,0004.31
